This is the latest recevied weather packets stored in our database for station/object BM1CKC-10. If no packets are shown the sender has not sent any weather packets the latest 10 day(s).
| Time | Temp. | Humidity | Pressure | Rain* | Wind** | Luminosity | Snow |
|---|---|---|---|---|---|---|---|
| 1777572598 | 25° C | 61% | 1010 hPa | - | - | - | - |
| 1777571398 | 25° C | 63% | 1010.1 hPa | - | - | - | - |
| 1777570199 | 24.44° C | 62% | 1010.3 hPa | - | - | - | - |
| 1777568998 | 25° C | 59% | 1010.3 hPa | - | - | - | - |
| 1777567798 | 25° C | 62% | 1010.4 hPa | - | - | - | - |
| 1777566598 | 25° C | 62% | 1010.3 hPa | - | - | - | - |
| 1777565398 | 24.44° C | 59% | 1010.5 hPa | - | - | - | - |
| 1777564198 | 24.44° C | 60% | 1010.7 hPa | - | - | - | - |
| 1777562998 | 25° C | 59% | 1010.7 hPa | - | - | - | - |
| 1777561805 | 25° C | 57% | 1010.9 hPa | - | - | - | - |
| 1777560597 | 25.56° C | 49% | 1011 hPa | - | - | - | - |
| 1777559398 | 27.78° C | 55% | 1011.2 hPa | - | - | - | - |
| 1777558198 | 27.22° C | 56% | 1011.2 hPa | - | - | - | - |
| 1777556998 | 27.22° C | 56% | 1011.1 hPa | - | - | - | - |
| 1777555798 | 27.78° C | 56% | 1011.1 hPa | - | - | - | - |
| 1777554598 | 27.78° C | 56% | 1011.1 hPa | - | - | - | - |
| 1777553398 | 27.78° C | 56% | 1010.9 hPa | - | - | - | - |
| 1777552198 | 27.78° C | 56% | 1010.8 hPa | - | - | - | - |
| 1777550998 | 27.78° C | 56% | 1010.6 hPa | - | - | - | - |
| 1777549798 | 27.78° C | 56% | 1010.4 hPa | - | - | - | - |
| 1777548598 | 27.78° C | 56% | 1010.4 hPa | - | - | - | - |
| 1777547398 | 27.78° C | 56% | 1010.1 hPa | - | - | - | - |
| 1777546198 | 27.78° C | 56% | 1010 hPa | - | - | - | - |
| 1777544998 | 27.78° C | 56% | 1009.9 hPa | - | - | - | - |
| 1777543798 | 27.78° C | 56% | 1009.9 hPa | - | - | - | - |
* Rain since midnight (hover to see other rain measurements)
** Current wind speed in m/s (hover to see current wind gust speed)